[[{"header":{"parameterUnit":"m.s-1","parameterCategory":1,"la1":30.2991,"la2":30.254,"lo1":-89.0895,"lo2":-89.0444,"dy":0.0017,"dx":0.0017,"nx":28,"ny":28,"refTime":"2025-05-19T21:00:00:Z","depth":0,"parameterNumber":2,"parameterNumberName":"U-component_of_WINDS"},"data":[0,0,0,0,0,0,0,0,0,0,0,0,0,0,0,0,0,0,0,0,0,0,0,0,0,0,0,0,0,0,0,0,0,0,0,0,0,0,0,0,0,0,0,0,0,0,0,0,0,0,0,0,0,0,0,0,0,0,3.2659,3.266,0,3.2796,3.2798,3.2799,3.2819,3.2818,3.2816,3.2815,3.2957,3.2961,3.2966,0,0,0,0,0,0,0,0,0,0,0,0,0,3.2414,3.2418,3.2659,3.266,3.2662,3.2796,3.2798,3.28,3.2819,3.2817,3.2816,3.2814,3.2955,3.2961,3.2967,0,0,0,0,0,0,0,0,0,0,0,0,0,3.2533,3.242,3.2658,3.2688,3.2692,3.2796,3.2798,3.28,3.2819,3.2817,3.2816,3.2814,3.2953,3.296,3.2968,3.3052,0,0,3.299,3.2993,0,0,0,0,0,0,0,0,3.2526,3.2542,3.2682,3.2686,3.2691,3.2788,3.2764,3.2885,3.282,3.2771,3.2815,3.2813,3.2902,3.2914,3.2944,3.3058,3.3064,3.2991,3.2995,3.2999,3.3001,0,0,0,0,0,0,0,3.2518,3.2536,3.2713,3.2684,3.2689,3.2695,3.2709,3.2787,3.2846,3.2775,3.2777,3.2793,3.2904,3.2937,3.2947,3.3067,3.2991,3.2997,3.3002,3.3005,3.3259,3.3261,0,0,0,0,0,0,3.2504,3.2529,3.2709,3.2717,3.2602,3.2701,3.2717,3.2759,3.2845,3.2856,3.2794,3.2793,3.2925,3.2938,3.2952,3.3057,3.2999,3.3006,3.301,3.3257,3.3259,3.3262,0,0,0,0,0,0,3.2499,3.252,3.2703,3.2624,3.2647,3.2707,3.2754,3.2763,3.2795,3.2859,3.287,3.2816,3.2924,3.2942,3.3027,3.3063,3.3009,3.3016,3.3254,3.3257,3.3261,3.3268,0,0,0,0,0,0,3.2492,3.2518,3.255,3.2624,3.2652,3.2775,3.2756,3.2767,3.2808,3.2808,3.2883,3.2894,3.2924,3.3016,3.3035,3.3072,3.3021,3.3251,3.3255,3.326,3.3265,3.3271,3.3276,0,0,0,0,0,3.2483,3.2546,3.2551,3.2573,3.2693,3.2777,3.2793,3.2826,3.281,3.2844,3.2885,3.2891,3.3056,3.3025,3.3046,3.3086,3.3249,3.3254,3.3259,3.3262,3.327,3.3276,0,0,0,0,0,0,3.2474,3.2556,3.2563,3.2653,3.2708,3.278,3.2823,3.2833,3.2894,3.2892,3.293,3.2947,3.3031,3.3067,3.3031,3.3172,3.3151,3.3161,3.3146,3.3154,3.316,3.3149,3.3028,0,0,0,0,0,3.2483,3.2544,3.2613,3.2685,3.2713,3.2763,3.2801,3.2822,3.2881,3.2904,3.2952,3.3009,3.3074,3.3116,3.3179,3.327,3.3287,3.3308,3.3314,3.3318,3.3326,3.3378,3.3389,3.3279,3.3279,3.3279,0,0,3.2501,3.2554,3.259,3.2685,3.273,3.2793,3.2783,3.285,3.2897,3.2915,3.2998,3.3036,3.3102,3.3191,3.3232,3.3223,3.3361,3.3325,3.3328,3.3334,3.3385,3.3395,3.3404,3.3282,3.3282,3.3281,0,0,3.2567,3.2612,3.2678,3.2724,3.2793,3.2826,3.2842,3.2914,3.2939,3.3024,3.3039,3.3096,3.3206,3.3254,3.3292,3.3377,3.3385,3.3397,3.3428,3.3478,3.3486,3.3494,3.3525,3.3536,3.3404,3.3404,3.3404,0,3.2581,3.2676,3.2711,3.2778,3.2819,3.2839,3.2906,3.2949,3.3035,3.3063,3.3052,3.3192,3.3238,3.3339,3.336,3.339,3.341,3.3388,3.3482,3.3491,3.3498,3.3528,3.354,3.3405,3.3405,3.3405,3.3405,0,3.2691,3.2757,3.2802,3.2885,3.2931,3.2998,3.3043,3.3087,3.3104,3.3139,3.3225,3.3282,3.3357,3.3382,3.3399,3.3486,3.3478,3.3474,3.3453,3.3509,3.3538,3.355,3.3407,3.3406,3.3406,3.3406,0,0,3.2754,3.2856,3.2872,3.291,3.2988,3.304,3.3109,3.3182,3.3219,3.3278,3.3337,3.343,3.3428,3.3471,3.3494,3.3538,3.3603,3.3529,3.3531,3.3541,3.3703,3.3705,3.3718,3.3609,3.3611,3.3613,3.3697,0,3.2829,3.2951,3.2984,3.3088,3.315,3.317,3.3229,3.3284,3.3319,3.3377,3.3415,3.3481,3.3472,3.3499,3.3543,3.3586,3.3636,3.358,3.3664,3.3667,3.3647,3.3733,3.3736,3.3812,3.3709,3.3711,3.3712,0,3.2932,3.2994,3.3103,3.3175,3.3202,3.3255,3.3326,3.3381,3.3444,3.3466,3.3516,3.3535,3.3608,3.3583,3.3684,3.3645,3.3682,3.3708,3.3712,3.3721,3.3693,3.3745,3.3837,3.3849,3.373,3.3729,3.3727,0,3.2968,3.3078,3.3158,3.3191,3.3276,3.3313,3.335,3.3411,3.3453,3.3516,3.3544,3.3614,3.3652,3.3706,3.3744,3.3722,3.3842,3.3821,3.3863,3.3862,3.3887,3.3885,3.3987,3.3911,3.3911,3.391,3.391,0,3.3048,3.3115,3.3176,3.3225,3.33,3.3339,3.3413,3.3451,3.3505,3.3562,3.3584,3.3638,3.3684,3.3745,3.3775,3.3855,3.3872,3.3892,3.3899,3.389,3.3888,3.3915,3.391,3.3913,3.3913,3.3912,3.3912,0,3.3101,3.3144,3.3233,3.3307,3.3327,3.3379,3.3442,3.3491,3.3527,3.36,3.3619,3.3676,3.3748,3.3791,3.3882,3.3903,3.3991,3.3996,3.3969,3.3973,3.4013,3.4009,3.4136,3.4155,3.4066,3.4066,3.4067,0,3.3149,3.3201,3.328,3.332,3.3358,3.3422,3.3466,3.3506,3.3551,3.3628,3.3668,3.3741,3.3802,3.3916,3.3966,3.4036,3.4043,3.4083,3.4054,3.4043,3.4044,3.4041,3.4046,3.4088,3.4088,3.4089,3.409,0,3.323,3.325,3.3312,3.3382,3.3434,3.3491,3.3548,3.358,3.363,3.368,3.3754,3.3801,3.3894,3.3967,3.4042,3.4081,3.4094,3.4099,3.4112,3.4103,3.4086,3.4096,3.3983,3.4095,3.4095,3.4094,3.4094,3.4094,3.3282,3.333,3.3393,3.3462,3.351,3.3563,3.3613,3.3655,3.3718,3.3797,3.3817,3.3895,3.3958,3.406,3.4101,3.4162,3.4156,3.4176,3.4181,3.4185,3.4186,3.4076,3.4176,3.4176,3.4176,3.4176,3.4176,0,3.3365,3.3407,3.3471,3.355,3.3605,3.3612,3.3676,3.3722,3.379,3.3847,3.3907,3.3993,3.4064,3.412,3.4193,3.4232,3.424,3.425,3.4247,3.4256,3.4187,3.4168,3.4242,3.4242,3.4242,3.4242,3.4242,3.4242,3.3414,3.3495,3.3522,3.3627,3.3669,3.3745,3.3781,3.3831,3.3877,3.3972,3.4031,3.4067,3.4124,3.4202,3.4268,3.4283,3.4309,3.4318,3.4333,3.4268,3.4261,3.4254,3.4236,3.4323,3.4323,3.4397,3.4398,3.4398]},{"header":{"parameterUnit":"m.s-1","parameterCategory":1,"la1":30.2991,"la2":30.254,"lo1":-89.0895,"lo2":-89.0444,"dy":0.0017,"dx":0.0017,"nx":28,"ny":28,"refTime":"2025-05-19T21:00:00:Z","depth":0,"parameterNumber":3,"parameterNumberName":"V-component_of_WINDS"},"data":[0,0,0,0,0,0,0,0,0,0,0,0,0,0,0,0,0,0,0,0,0,0,0,0,0,0,0,0,0,0,0,0,0,0,0,0,0,0,0,0,0,0,0,0,0,0,0,0,0,0,0,0,0,0,0,0,0,0,1.8321,1.8321,0,1.8316,1.8315,1.8315,1.826,1.8259,1.8258,1.8256,1.8251,1.8252,1.8253,0,0,0,0,0,0,0,0,0,0,0,0,0,1.8285,1.8286,1.8321,1.8321,1.8321,1.8316,1.8315,1.8315,1.8261,1.8259,1.8257,1.8256,1.8251,1.8252,1.8253,0,0,0,0,0,0,0,0,0,0,0,0,0,1.8292,1.8286,1.8321,1.8293,1.8291,1.8316,1.8315,1.8315,1.8261,1.8259,1.8257,1.8255,1.825,1.8252,1.8254,1.8305,0,0,1.8259,1.826,0,0,0,0,0,0,0,0,1.8292,1.8294,1.8297,1.8295,1.8292,1.8287,1.8301,1.8312,1.8262,1.8272,1.8256,1.8254,1.8265,1.8265,1.8268,1.8305,1.8305,1.8259,1.826,1.8261,1.8261,0,0,0,0,0,0,0,1.8292,1.8294,1.8319,1.8297,1.8294,1.8281,1.828,1.8303,1.828,1.8271,1.8267,1.8267,1.8263,1.8267,1.8268,1.8305,1.8259,1.826,1.8261,1.8262,1.8383,1.8385,0,0,0,0,0,0,1.8295,1.8294,1.8319,1.8319,1.8287,1.8283,1.8282,1.829,1.828,1.8276,1.8269,1.8265,1.8265,1.8266,1.8268,1.8327,1.8261,1.8262,1.8263,1.8381,1.8384,1.8386,0,0,0,0,0,0,1.8294,1.8298,1.8319,1.8305,1.8307,1.8286,1.8296,1.8291,1.8295,1.8278,1.8274,1.8277,1.8263,1.8265,1.8296,1.8326,1.8263,1.8265,1.8378,1.8382,1.8385,1.8446,0,0,0,0,0,0,1.8294,1.8298,1.8317,1.8306,1.8308,1.8348,1.8298,1.8293,1.8299,1.8293,1.8285,1.8281,1.8262,1.8294,1.8298,1.8327,1.8266,1.8376,1.838,1.8384,1.8442,1.8451,1.846,0,0,0,0,0,1.8293,1.8335,1.8318,1.8322,1.8332,1.835,1.8351,1.8328,1.8301,1.832,1.8309,1.8282,1.8322,1.8298,1.8302,1.8332,1.8374,1.8379,1.8383,1.8438,1.8449,1.846,0,0,0,0,0,0,1.835,1.8333,1.8314,1.8355,1.8354,1.8341,1.8364,1.8341,1.8348,1.8343,1.8314,1.8312,1.8348,1.8343,1.8316,1.8381,1.8343,1.8349,1.8383,1.8394,1.8403,1.8403,1.8267,0,0,0,0,0,1.8368,1.8384,1.8368,1.8405,1.8406,1.8385,1.8393,1.8375,1.8373,1.8373,1.8364,1.8363,1.8376,1.8385,1.8395,1.8441,1.8438,1.8464,1.8473,1.848,1.8486,1.8509,1.852,1.8402,1.8402,1.8402,0,0,1.8404,1.8397,1.8409,1.8417,1.8414,1.8432,1.8386,1.8406,1.8419,1.8376,1.8404,1.8398,1.8396,1.8434,1.845,1.8431,1.8518,1.8487,1.8493,1.8494,1.8515,1.8526,1.8536,1.8405,1.8405,1.8404,0,0,1.8479,1.8475,1.8505,1.8504,1.85,1.8486,1.8494,1.8484,1.8478,1.8506,1.8474,1.8489,1.8511,1.8511,1.8514,1.8589,1.8563,1.8593,1.864,1.8663,1.8673,1.8681,1.8707,1.8717,1.8599,1.8599,1.8599,0,1.8524,1.8549,1.8523,1.8546,1.855,1.8512,1.8542,1.8542,1.8543,1.8547,1.8525,1.8552,1.8548,1.8586,1.8604,1.8608,1.8615,1.8593,1.8673,1.8681,1.8688,1.8713,1.8723,1.8602,1.8602,1.8601,1.8601,0,1.8605,1.8623,1.8647,1.8649,1.8656,1.8682,1.8661,1.8671,1.8653,1.8642,1.8671,1.8664,1.8673,1.8681,1.8663,1.8716,1.8704,1.8678,1.8639,1.8703,1.8726,1.8736,1.8607,1.8606,1.8605,1.8604,0,0,1.8715,1.8702,1.8712,1.8712,1.8705,1.8719,1.8744,1.8752,1.8761,1.8763,1.8783,1.8803,1.8779,1.8783,1.8765,1.8785,1.8844,1.8757,1.8756,1.8773,1.8902,1.8921,1.8932,1.8828,1.8829,1.8831,1.8902,0,1.8786,1.8828,1.8805,1.885,1.8866,1.883,1.8852,1.885,1.884,1.8853,1.8842,1.8856,1.8824,1.8825,1.8844,1.8833,1.887,1.8828,1.8846,1.8847,1.8847,1.8944,1.8964,1.9031,1.891,1.8912,1.8913,0,1.8875,1.8881,1.8926,1.8917,1.8923,1.8943,1.8948,1.8961,1.8959,1.895,1.8954,1.8931,1.8955,1.8917,1.8949,1.8921,1.8927,1.8923,1.8925,1.8925,1.8883,1.8946,1.9052,1.9062,1.8927,1.8926,1.8925,0,1.895,1.8969,1.8999,1.9,1.899,1.9005,1.9002,1.8997,1.9004,1.9009,1.9013,1.9021,1.9025,1.9032,1.9012,1.8986,1.9047,1.9007,1.904,1.9041,1.9054,1.9054,1.9162,1.9059,1.9059,1.9059,1.9059,0,1.9032,1.9061,1.9033,1.9051,1.9083,1.9057,1.909,1.9082,1.9079,1.9095,1.9065,1.9081,1.9054,1.9067,1.9052,1.9081,1.9083,1.9077,1.9072,1.9079,1.908,1.9082,1.9077,1.9062,1.9061,1.9061,1.906,0,1.9121,1.9103,1.9133,1.9121,1.9119,1.9143,1.9133,1.9149,1.9138,1.9159,1.9162,1.9144,1.9158,1.9139,1.9151,1.9141,1.918,1.9169,1.9181,1.9177,1.9211,1.9208,1.9324,1.9338,1.9227,1.9228,1.9229,0,1.9174,1.9196,1.9186,1.9195,1.9193,1.9208,1.9214,1.919,1.9198,1.9197,1.9214,1.9225,1.9233,1.9258,1.9245,1.9255,1.9243,1.9283,1.9244,1.925,1.9243,1.9242,1.9244,1.9291,1.9292,1.9293,1.9294,0,1.927,1.926,1.927,1.9277,1.9286,1.929,1.9293,1.9302,1.9276,1.9287,1.9301,1.9307,1.9319,1.9331,1.9337,1.9334,1.931,1.9307,1.9315,1.9322,1.9328,1.9325,1.9202,1.9304,1.9303,1.9302,1.9302,1.9301,1.9342,1.936,1.9356,1.9368,1.9367,1.937,1.9385,1.9375,1.9386,1.9394,1.938,1.9398,1.9395,1.9401,1.94,1.9413,1.9396,1.9408,1.9411,1.9414,1.9419,1.9326,1.9415,1.9414,1.9414,1.9414,1.9413,0,1.9436,1.9432,1.9443,1.9447,1.9457,1.9434,1.9435,1.9445,1.9461,1.9461,1.9469,1.9485,1.9497,1.9486,1.9495,1.9508,1.9497,1.9511,1.951,1.9509,1.9434,1.9426,1.952,1.952,1.952,1.952,1.952,1.952,1.9486,1.9514,1.9504,1.9532,1.9527,1.9544,1.9547,1.955,1.9549,1.9568,1.9578,1.957,1.9566,1.9574,1.9584,1.958,1.9585,1.9603,1.9595,1.9525,1.9515,1.9505,1.9497,1.9604,1.9604,1.9669,1.967,1.967]}]]